M I D A S
Marine Information and Data Acquisition System
Tripno 731 of the Zeeleeuw from 2004-06-08 06:06:44 to 2004-06-08 15:33:51
Back to CruiseResearch ActivitiesStationsMapUnderway DataData graphs

EquipmentUnitsComments
TimeDGPSUTC
LatitudeDGPSDM.mWGS84
LongitudeDGPSDM.mWGS84
SpeedMeteo Stationm/sRelative wind speed
DirectionMeteo StationdegRelative wind direction
TemperatureMeteo Stationdeg CelciusAir temperature
PressureMeteo StationPaAtmospheric pressure
HumidityMeteo Station%Relative humidity
Missing or incorrect values are displayed as -999
Metereological data collected by the RV Zeeleeuw from 2004-06-08 06:06:44 to 2004-06-08 15:33:51
                                                                                    Next 1000 lines
Time Latitude Longitude Speed Direction Temperature Pressure Humidity
2004-06-08 06:06:52 51°13.601 2°56.098 4.1 51 19.7 101820 73
2004-06-08 06:06:56 51°13.601 2°56.098 4 48 19.7 101820 73
2004-06-08 06:07:02 51°13.6 2°56.099 4.2 34 19.7 101820 73
2004-06-08 06:07:06 51°13.6 2°56.099 4.2 31 19.7 101820 73
2004-06-08 06:07:11 51°13.6 2°56.099 4.6 31 19.7 101820 73
2004-06-08 06:07:16 51°13.6 2°56.099 3.9 62 19.7 101820 73
2004-06-08 06:07:22 51°13.6 2°56.099 2.9 54 19.7 101820 73
2004-06-08 06:07:25 51°13.6 2°56.099 2.9 49 19.7 101820 73
2004-06-08 06:07:31 51°13.6 2°56.099 4.3 55 19.7 101820 73
2004-06-08 06:07:37 51°13.599 2°56.099 4.3 65 19.7 101820 73
2004-06-08 06:07:41 51°13.599 2°56.098 4.8 59 19.7 101820 73
2004-06-08 06:07:46 51°13.599 2°56.098 4 67 19.7 101820 73
2004-06-08 06:07:52 51°13.598 2°56.098 4.4 72 19.8 101820 73
2004-06-08 06:07:56 51°13.598 2°56.098 4.1 76 19.8 101820 73
2004-06-08 06:08:01 51°13.598 2°56.098 3.6 80 19.8 101820 73
2004-06-08 06:08:05 51°13.598 2°56.097 3 84 19.8 101820 73
2004-06-08 06:08:11 51°13.598 2°56.096 1.9 81 19.8 101820 73
2004-06-08 06:08:16 51°13.598 2°56.093 1.5 92 19.8 101820 73
2004-06-08 06:08:21 51°13.599 2°56.089 1.9 57 19.8 101820 73
2004-06-08 06:08:26 51°13.6 2°56.085 2 100 19.8 101820 73
2004-06-08 06:08:32 51°13.602 2°56.079 2.6 64 19.8 101820 73
2004-06-08 06:08:37 51°13.603 2°56.073 2.5 79 19.8 101820 73
2004-06-08 06:08:42 51°13.605 2°56.066 2.6 68 19.8 101820 73
2004-06-08 06:08:45 51°13.605 2°56.062 1.6 73 19.8 101820 73
2004-06-08 06:08:52 51°13.608 2°56.051 1.7 83 19.8 101820 73
2004-06-08 06:08:57 51°13.61 2°56.043 1.9 77 19.8 101820 73
2004-06-08 06:09:02 51°13.613 2°56.034 1.8 115 19.8 101820 73
2004-06-08 06:09:07 51°13.615 2°56.024 1.6 165 19.8 101820 73
2004-06-08 06:09:12 51°13.617 2°56.015 1.1 128 19.8 101830 73
2004-06-08 06:09:17 51°13.62 2°56.004 1.5 128 19.8 101830 73
2004-06-08 06:09:22 51°13.623 2°55.994 1.7 128 19.8 101820 73
2004-06-08 06:09:27 51°13.625 2°55.983 1 124 19.8 101820 73
2004-06-08 06:09:32 51°13.629 2°55.973 2.6 125 19.8 101830 73
2004-06-08 06:09:36 51°13.631 2°55.964 2 119 19.8 101830 73
2004-06-08 06:09:42 51°13.635 2°55.952 2.4 125 19.8 101830 73
2004-06-08 06:09:47 51°13.639 2°55.941 2.5 128 19.8 101830 73
2004-06-08 06:09:52 51°13.642 2°55.93 1.9 130 19.9 101820 73
2004-06-08 06:09:57 51°13.646 2°55.919 1.6 113 19.9 101820 73
2004-06-08 06:10:02 51°13.649 2°55.908 2.8 116 19.9 101820 73
2004-06-08 06:10:07 51°13.653 2°55.897 2.3 115 19.9 101820 73
2004-06-08 06:10:12 51°13.656 2°55.886 2.4 132 19.9 101830 73
2004-06-08 06:10:17 51°13.66 2°55.875 3.1 115 19.9 101830 73
2004-06-08 06:10:22 51°13.663 2°55.864 2.8 110 19.9 101830 74
2004-06-08 06:10:25 51°13.665 2°55.857 1.8 124 19.9 101830 74
2004-06-08 06:10:32 51°13.669 2°55.841 2 135 19.9 101820 73
2004-06-08 06:10:37 51°13.671 2°55.83 2.3 141 19.9 101820 73
2004-06-08 06:10:42 51°13.674 2°55.818 4.3 136 19.9 101830 73
2004-06-08 06:10:46 51°13.675 2°55.808 4.5 135 19.9 101830 73
2004-06-08 06:10:52 51°13.677 2°55.794 3.9 155 19.9 101820 73
2004-06-08 06:10:57 51°13.679 2°55.783 3.1 156 19.9 101820 73
2004-06-08 06:11:02 51°13.681 2°55.772 2.6 171 19.9 101820 73
2004-06-08 06:11:07 51°13.682 2°55.763 3.1 142 19.9 101820 73
2004-06-08 06:11:12 51°13.683 2°55.756 4.1 117 19.9 101820 73
2004-06-08 06:11:17 51°13.684 2°55.751 4.1 124 19.9 101820 73
2004-06-08 06:11:22 51°13.684 2°55.749 4 124 20 101820 73
2004-06-08 06:11:26 51°13.685 2°55.749 4 121 20 101820 73
2004-06-08 06:11:32 51°13.687 2°55.751 4.3 119 20 101820 73
2004-06-08 06:11:36 51°13.688 2°55.753 3.1 129 20 101820 73
2004-06-08 06:11:41 51°13.691 2°55.757 3 140 20 101820 72
2004-06-08 06:11:45 51°13.694 2°55.76 2.8 138 20 101820 72
2004-06-08 06:11:52 51°13.698 2°55.764 2.2 143 20 101820 72
2004-06-08 06:11:56 51°13.701 2°55.766 3.4 157 20 101820 72
2004-06-08 06:12:02 51°13.703 2°55.767 3.2 148 20 101820 72
2004-06-08 06:12:06 51°13.703 2°55.767 2.7 159 20 101820 72
2004-06-08 06:12:12 51°13.703 2°55.767 2.8 164 20 101820 72
2004-06-08 06:12:16 51°13.703 2°55.767 3.1 160 20 101820 72
2004-06-08 06:12:22 51°13.701 2°55.766 3.6 152 20 101820 72
2004-06-08 06:12:26 51°13.699 2°55.764 3.3 157 20 101820 72
2004-06-08 06:12:32 51°13.696 2°55.763 3.2 153 20 101820 72
2004-06-08 06:12:36 51°13.694 2°55.761 3.2 145 20 101820 72
2004-06-08 06:12:41 51°13.693 2°55.76 2.8 139 20 101820 72
2004-06-08 06:12:47 51°13.693 2°55.76 2.2 148 20 101820 72
2004-06-08 06:12:52 51°13.695 2°55.76 1.3 156 20 101820 72
2004-06-08 06:12:57 51°13.698 2°55.76 1 139 20 101820 72
2004-06-08 06:13:02 51°13.702 2°55.759 0.5 42 20.1 101820 72
2004-06-08 06:13:06 51°13.706 2°55.757 0.6 340 20.1 101820 72
2004-06-08 06:13:12 51°13.711 2°55.754 0.7 302 20.1 101820 72
2004-06-08 06:13:17 51°13.716 2°55.75 1.3 247 20.1 101820 72
2004-06-08 06:13:21 51°13.719 2°55.747 3.5 232 20.1 101820 72
2004-06-08 06:13:26 51°13.724 2°55.742 2.7 233 20.1 101820 72
2004-06-08 06:13:32 51°13.729 2°55.735 2.8 233 20.1 101820 72
2004-06-08 06:13:36 51°13.733 2°55.731 3.2 225 20.1 101820 72
2004-06-08 06:13:41 51°13.738 2°55.724 2.4 230 20.1 101820 72
2004-06-08 06:13:45 51°13.743 2°55.719 2 228 20.1 101820 72
2004-06-08 06:13:52 51°13.752 2°55.709 2.3 225 20.1 101820 72
2004-06-08 06:13:56 51°13.758 2°55.703 2 213 20.1 101820 72
2004-06-08 06:14:02 51°13.766 2°55.694 1.3 219 20.1 101820 71
2004-06-08 06:14:05 51°13.771 2°55.69 1 220 20.1 101820 71
2004-06-08 06:14:11 51°13.781 2°55.681 0.5 227 20.1 101820 71
2004-06-08 06:14:17 51°13.791 2°55.673 0.4 210 20.1 101820 71
2004-06-08 06:14:21 51°13.799 2°55.667 0.7 176 20.2 101830 71
2004-06-08 06:14:26 51°13.808 2°55.661 0.5 169 20.2 101830 71
2004-06-08 06:14:32 51°13.819 2°55.652 0.3 169 20.2 101820 71
2004-06-08 06:14:36 51°13.827 2°55.647 0.3 168 20.2 101820 71
2004-06-08 06:14:40 51°13.834 2°55.641 0.3 194 20.2 101820 71
2004-06-08 06:14:46 51°13.846 2°55.633 0.5 219 20.2 101820 71
2004-06-08 06:14:52 51°13.858 2°55.625 0.3 219 20.2 101820 71
2004-06-08 06:14:56 51°13.867 2°55.62 0.2 219 20.2 101820 71
2004-06-08 06:15:01 51°13.877 2°55.614 0.1 219 20.2 101820 71
2004-06-08 06:15:05 51°13.885 2°55.61 0.3 218 20.2 101820 71
2004-06-08 06:15:12 51°13.9 2°55.602 0.4 211 20.2 101830 71
2004-06-08 06:15:16 51°13.908 2°55.597 0.5 208 20.2 101830 71
2004-06-08 06:15:21 51°13.918 2°55.591 0.7 204 20.2 101830 71
2004-06-08 06:15:26 51°13.929 2°55.585 0.8 202 20.2 101830 71
2004-06-08 06:15:32 51°13.942 2°55.578 0.6 201 20.2 101830 71
2004-06-08 06:15:36 51°13.95 2°55.573 0.3 212 20.2 101830 71
2004-06-08 06:15:42 51°13.963 2°55.566 0.5 211 20.3 101820 71
2004-06-08 06:15:46 51°13.971 2°55.56 0.3 211 20.3 101820 71
2004-06-08 06:15:51 51°13.982 2°55.554 0.3 211 20.3 101820 71
2004-06-08 06:15:56 51°13.992 2°55.548 0.5 211 20.3 101820 71
2004-06-08 06:16:01 51°14.003 2°55.541 0.6 220 20.3 101820 71
2004-06-08 06:16:05 51°14.011 2°55.536 0.4 220 20.3 101820 71
2004-06-08 06:16:12 51°14.026 2°55.526 0.3 220 20.3 101820 71
2004-06-08 06:16:16 51°14.035 2°55.52 0.3 220 20.3 101820 71
2004-06-08 06:16:22 51°14.048 2°55.511 0.3 220 20.3 101820 71
2004-06-08 06:16:25 51°14.055 2°55.506 0.1 220 20.3 101820 71
2004-06-08 06:16:31 51°14.068 2°55.497 0.1 220 20.3 101820 70
2004-06-08 06:16:37 51°14.082 2°55.487 0.3 221 20.3 101820 70
2004-06-08 06:16:41 51°14.091 2°55.479 0.7 300 20.4 101820 70
2004-06-08 06:16:46 51°14.103 2°55.47 0.7 315 20.4 101820 70
2004-06-08 06:16:52 51°14.116 2°55.458 1.1 341 20.4 101820 71
2004-06-08 06:16:56 51°14.126 2°55.45 1.1 340 20.4 101820 71
2004-06-08 06:17:02 51°14.14 2°55.437 1.6 349 20.4 101820 71
2004-06-08 06:17:06 51°14.149 2°55.428 1.7 333 20.4 101820 71
2004-06-08 06:17:12 51°14.163 2°55.414 2 303 20.4 101820 70
2004-06-08 06:17:17 51°14.174 2°55.402 2.1 328 20.4 101820 70
2004-06-08 06:17:21 51°14.183 2°55.392 2.7 331 20.5 101820 70
2004-06-08 06:17:26 51°14.194 2°55.379 3.6 308 20.5 101820 70
2004-06-08 06:17:38 51°14.219 2°55.345 3.1 308 20.5 101820 70
2004-06-08 06:17:44 51°14.232 2°55.326 2.9 306 20.5 101830 70
2004-06-08 06:17:48 51°14.241 2°55.314 3.3 327 20.5 101830 70
2004-06-08 06:17:53 51°14.251 2°55.297 3.8 326 20.5 101820 70
2004-06-08 06:17:58 51°14.262 2°55.28 3.3 325 20.5 101820 70
2004-06-08 06:18:03 51°14.273 2°55.262 2.8 229 20.6 101820 70
2004-06-08 06:18:09 51°14.285 2°55.239 2.8 327 20.6 101820 70
2004-06-08 06:18:13 51°14.294 2°55.224 3.2 319 20.6 101820 69
2004-06-08 06:18:18 51°14.304 2°55.204 2.9 339 20.6 101820 69
2004-06-08 06:18:24 51°14.316 2°55.18 3.8 335 20.6 101820 69
2004-06-08 06:18:29 51°14.326 2°55.16 3.8 320 20.6 101820 69
2004-06-08 06:18:33 51°14.334 2°55.143 4 332 20.6 101820 69
2004-06-08 06:18:38 51°14.344 2°55.122 4.6 324 20.6 101820 69
2004-06-08 06:18:43 51°14.353 2°55.1 3.6 319 20.6 101820 69
2004-06-08 06:18:48 51°14.363 2°55.078 4 324 20.6 101820 69
2004-06-08 06:18:54 51°14.374 2°55.05 4.6 327 20.6 101820 69
2004-06-08 06:18:58 51°14.382 2°55.031 3.9 341 20.6 101820 69
2004-06-08 06:19:04 51°14.394 2°55.002 4.6 329 20.6 101810 69
2004-06-08 06:19:09 51°14.403 2°54.978 4.6 336 20.6 101810 69
2004-06-08 06:19:13 51°14.412 2°54.958 4.9 346 20.6 101820 68
2004-06-08 06:19:18 51°14.422 2°54.934 4.7 333 20.6 101820 68
2004-06-08 06:19:24 51°14.435 2°54.905 4.5 339 20.6 101820 68
2004-06-08 06:19:29 51°14.446 2°54.881 4.4 334 20.6 101820 68
2004-06-08 06:19:33 51°14.455 2°54.862 4.3 341 20.6 101820 68
2004-06-08 06:19:38 51°14.467 2°54.838 4.8 354 20.6 101820 68
2004-06-08 06:19:44 51°14.482 2°54.811 4.7 344 20.7 101810 68
2004-06-08 06:19:49 51°14.494 2°54.788 4.5 350 20.7 101810 68
2004-06-08 06:19:52 51°14.502 2°54.775 4.3 351 20.7 101810 68
2004-06-08 06:19:58 51°14.517 2°54.75 4.3 347 20.7 101810 68
2004-06-08 06:20:02 51°14.528 2°54.733 3.8 351 20.7 101810 68
2004-06-08 06:20:09 51°14.547 2°54.704 4.3 349 20.7 101810 68
2004-06-08 06:20:14 51°14.56 2°54.684 4.1 348 20.7 101820 68
2004-06-08 06:20:18 51°14.571 2°54.667 5 351 20.7 101820 68
2004-06-08 06:20:29 51°14.599 2°54.621 5 4 20.7 101820 68
2004-06-08 06:20:34 51°14.612 2°54.6 4.2 352 20.7 101820 68
2004-06-08 06:20:41 51°14.63 2°54.571 3.9 355 20.7 101820 68
2004-06-08 06:20:45 51°14.641 2°54.554 5.1 358 20.7 101820 68
2004-06-08 06:20:57 51°14.671 2°54.503 4.9 14 20.7 101820 68
2004-06-08 06:21:03 51°14.686 2°54.477 5.4 1 20.7 101820 68
2004-06-08 06:21:09 51°14.702 2°54.452 5.3 5 20.7 101820 68
2004-06-08 06:21:13 51°14.712 2°54.435 5.3 1 20.7 101820 68
2004-06-08 06:21:18 51°14.725 2°54.414 5.5 1 20.7 101820 68
2004-06-08 06:21:24 51°14.74 2°54.389 6.3 2 20.7 101820 68
2004-06-08 06:21:29 51°14.753 2°54.368 6.4 359 20.7 101820 68
2004-06-08 06:21:33 51°14.763 2°54.351 5.8 2 20.7 101820 68
2004-06-08 06:21:38 51°14.776 2°54.329 6.1 5 20.7 101820 68
2004-06-08 06:21:43 51°14.787 2°54.307 6.2 5 20.7 101820 68
2004-06-08 06:21:49 51°14.801 2°54.28 6 7 20.7 101820 68
2004-06-08 06:21:54 51°14.813 2°54.257 5.9 360 20.6 101820 68
2004-06-08 06:21:57 51°14.819 2°54.243 5.7 360 20.6 101820 68
2004-06-08 06:22:04 51°14.835 2°54.21 5.7 358 20.6 101820 68
2004-06-08 06:22:07 51°14.842 2°54.197 5.2 357 20.6 101820 68
2004-06-08 06:22:13 51°14.855 2°54.169 5.5 357 20.6 101820 68
2004-06-08 06:22:18 51°14.866 2°54.146 5.1 350 20.6 101820 68
2004-06-08 06:22:24 51°14.88 2°54.118 4.7 355 20.6 101820 69
2004-06-08 06:22:28 51°14.889 2°54.099 4.9 348 20.6 101820 69
2004-06-08 06:22:33 51°14.899 2°54.075 5.2 349 20.5 101820 69
2004-06-08 06:22:37 51°14.907 2°54.056 5.2 351 20.5 101820 69
2004-06-08 06:22:44 51°14.92 2°54.021 5.5 346 20.5 101820 69
2004-06-08 06:22:48 51°14.927 2°54.001 5.8 341 20.5 101820 69
2004-06-08 06:22:52 51°14.934 2°53.981 5.4 341 20.5 101820 69
2004-06-08 06:22:59 51°14.947 2°53.946 5.4 343 20.5 101820 69
2004-06-08 06:23:02 51°14.952 2°53.93 5.1 340 20.5 101820 69
2004-06-08 06:23:09 51°14.964 2°53.894 5.5 346 20.5 101820 69
2004-06-08 06:23:13 51°14.971 2°53.873 5.7 346 20.5 101820 69
2004-06-08 06:23:18 51°14.979 2°53.847 5.2 344 20.5 101820 69
2004-06-08 06:23:24 51°14.989 2°53.817 5.1 344 20.5 101820 69
2004-06-08 06:23:29 51°14.998 2°53.791 5.2 342 20.5 101820 69
2004-06-08 06:23:33 51°15.005 2°53.77 5.1 340 20.4 101820 69
2004-06-08 06:23:38 51°15.014 2°53.745 5.3 333 20.4 101820 69
2004-06-08 06:23:44 51°15.024 2°53.714 5 339 20.4 101820 69
2004-06-08 06:23:48 51°15.032 2°53.694 5.2 337 20.4 101820 69
2004-06-08 06:23:53 51°15.041 2°53.669 5.2 333 20.4 101820 70
2004-06-08 06:23:57 51°15.048 2°53.649 5.7 334 20.4 101820 70
2004-06-08 06:24:04 51°15.061 2°53.613 5.3 332 20.4 101820 70
2004-06-08 06:24:08 51°15.068 2°53.593 5.5 321 20.4 101820 70
2004-06-08 06:24:14 51°15.079 2°53.563 5.3 320 20.4 101820 70
2004-06-08 06:24:19 51°15.088 2°53.538 4.7 332 20.4 101820 70
2004-06-08 06:24:23 51°15.095 2°53.518 4.7 334 20.4 101820 70
2004-06-08 06:24:28 51°15.104 2°53.493 5 330 20.4 101820 70
2004-06-08 06:24:33 51°15.113 2°53.467 5.2 331 20.4 101820 70
2004-06-08 06:24:37 51°15.12 2°53.447 5.1 329 20.4 101820 70
2004-06-08 06:24:44 51°15.132 2°53.412 5.1 328 20.4 101820 70
2004-06-08 06:24:49 51°15.141 2°53.386 5.2 326 20.4 101820 70
2004-06-08 06:24:54 51°15.149 2°53.361 4.8 323 20.4 101820 70
2004-06-08 06:24:58 51°15.157 2°53.341 5.1 331 20.4 101820 70
2004-06-08 06:25:04 51°15.168 2°53.311 5.1 327 20.4 101820 70
2004-06-08 06:25:08 51°15.175 2°53.291 4.5 329 20.4 101820 70
2004-06-08 06:25:13 51°15.184 2°53.266 4.6 326 20.4 101820 70
2004-06-08 06:25:18 51°15.193 2°53.24 4.8 323 20.4 101820 70
2004-06-08 06:25:24 51°15.204 2°53.21 5 323 20.4 101820 70
2004-06-08 06:25:29 51°15.213 2°53.185 4.7 329 20.4 101820 70
2004-06-08 06:25:32 51°15.219 2°53.17 4.9 330 20.4 101820 70
2004-06-08 06:25:38 51°15.23 2°53.14 4.6 332 20.4 101820 70
2004-06-08 06:25:44 51°15.242 2°53.11 4.8 333 20.4 101820 70
2004-06-08 06:25:49 51°15.251 2°53.085 5.2 330 20.4 101820 70
2004-06-08 06:25:53 51°15.258 2°53.065 5.3 341 20.4 101820 70
2004-06-08 06:25:58 51°15.268 2°53.04 5.6 337 20.4 101820 70
2004-06-08 06:26:04 51°15.279 2°53.009 5.1 334 20.4 101820 70
2004-06-08 06:26:08 51°15.286 2°52.989 5.6 334 20.4 101820 70
2004-06-08 06:26:12 51°15.293 2°52.968 6 330 20.4 101820 70
2004-06-08 06:26:18 51°15.305 2°52.938 5.7 332 20.4 101820 70
2004-06-08 06:26:22 51°15.312 2°52.918 5.3 334 20.4 101830 70
2004-06-08 06:26:29 51°15.326 2°52.883 4.7 340 20.4 101830 70
2004-06-08 06:26:34 51°15.336 2°52.858 4.7 334 20.3 101820 70
2004-06-08 06:26:38 51°15.344 2°52.838 5.4 339 20.3 101820 70
2004-06-08 06:26:42 51°15.351 2°52.818 5.2 332 20.3 101820 70
2004-06-08 06:26:49 51°15.365 2°52.782 5.2 332 20.3 101820 70
2004-06-08 06:26:53 51°15.372 2°52.762 5 334 20.4 101820 70
2004-06-08 06:26:58 51°15.381 2°52.737 5.2 337 20.4 101820 70
2004-06-08 06:27:04 51°15.393 2°52.707 5 336 20.4 101820 70
2004-06-08 06:27:09 51°15.402 2°52.682 5.1 336 20.4 101820 70
2004-06-08 06:27:14 51°15.41 2°52.656 5.2 339 20.4 101820 70
2004-06-08 06:27:18 51°15.414 2°52.634 6.1 337 20.4 101820 70
2004-06-08 06:27:24 51°15.42 2°52.601 6.2 336 20.3 101820 70
2004-06-08 06:27:28 51°15.423 2°52.579 6.4 334 20.3 101820 70
2004-06-08 06:27:32 51°15.426 2°52.557 6.6 335 20.3 101820 70
2004-06-08 06:27:37 51°15.43 2°52.529 6.3 334 20.3 101820 70
2004-06-08 06:27:44 51°15.433 2°52.489 6.9 333 20.3 101820 70
2004-06-08 06:27:48 51°15.435 2°52.467 6.7 335 20.3 101820 70
2004-06-08 06:27:53 51°15.438 2°52.439 6.5 339 20.3 101820 70
2004-06-08 06:27:57 51°15.439 2°52.416 6.9 339 20.3 101820 70
2004-06-08 06:28:04 51°15.442 2°52.376 6.7 339 20.3 101820 71
2004-06-08 06:28:09 51°15.444 2°52.348 6.5 342 20.3 101820 71
2004-06-08 06:28:13 51°15.446 2°52.325 6.4 344 20.3 101820 71
2004-06-08 06:28:18 51°15.448 2°52.296 6.5 346 20.3 101820 71
2004-06-08 06:28:24 51°15.45 2°52.262 6.5 348 20.2 101820 71
2004-06-08 06:28:28 51°15.452 2°52.239 6.5 349 20.2 101820 71
2004-06-08 06:28:33 51°15.454 2°52.211 6.6 351 20.2 101820 71
2004-06-08 06:28:38 51°15.456 2°52.182 6.6 350 20.2 101820 71
2004-06-08 06:28:44 51°15.459 2°52.148 6.8 348 20.2 101820 72
2004-06-08 06:28:49 51°15.461 2°52.12 6.9 348 20.2 101820 72
2004-06-08 06:28:54 51°15.462 2°52.091 6.9 345 20.1 101820 72
2004-06-08 06:28:58 51°15.463 2°52.069 7 349 20.1 101820 72
2004-06-08 06:29:02 51°15.464 2°52.046 6.4 347 20.1 101820 72
2004-06-08 06:29:09 51°15.464 2°52.006 7.1 345 20.1 101820 72
2004-06-08 06:29:13 51°15.464 2°51.984 6.6 345 20.1 101820 72
2004-06-08 06:29:18 51°15.464 2°51.955 7.5 342 20.1 101820 72
2004-06-08 06:29:23 51°15.464 2°51.927 7.2 344 20 101820 73
2004-06-08 06:29:29 51°15.463 2°51.892 7.2 338 20 101820 73
2004-06-08 06:29:33 51°15.463 2°51.87 6.6 341 20 101820 73
2004-06-08 06:29:38 51°15.463 2°51.841 7.2 344 20 101820 73
2004-06-08 06:29:44 51°15.462 2°51.807 7 339 20 101820 73
2004-06-08 06:29:49 51°15.46 2°51.779 6.8 340 20 101820 73
2004-06-08 06:29:53 51°15.459 2°51.756 6.6 338 19.9 101820 73
2004-06-08 06:29:58 51°15.456 2°51.728 6.8 340 19.9 101820 73
2004-06-08 06:30:02 51°15.455 2°51.705 6.8 342 19.9 101830 73
2004-06-08 06:30:09 51°15.451 2°51.666 6.9 344 19.9 101830 73
2004-06-08 06:30:14 51°15.448 2°51.638 7.3 341 19.9 101820 73
2004-06-08 06:30:18 51°15.446 2°51.616 7.1 339 19.9 101820 73
2004-06-08 06:30:24 51°15.442 2°51.582 7 338 19.8 101820 74
2004-06-08 06:30:29 51°15.44 2°51.554 6.8 340 19.8 101820 74
2004-06-08 06:30:33 51°15.438 2°51.532 6.7 338 19.8 101820 74
2004-06-08 06:30:38 51°15.435 2°51.504 7.2 338 19.8 101820 74
2004-06-08 06:30:44 51°15.433 2°51.47 7.1 341 19.7 101820 74
2004-06-08 06:30:49 51°15.43 2°51.442 7.5 341 19.7 101820 74
2004-06-08 06:30:53 51°15.429 2°51.419 6.8 342 19.7 101820 74
2004-06-08 06:30:58 51°15.426 2°51.391 7.3 346 19.7 101820 74
2004-06-08 06:31:02 51°15.424 2°51.368 7.1 347 19.7 101820 74
2004-06-08 06:31:09 51°15.421 2°51.329 7.5 346 19.7 101820 74
2004-06-08 06:31:14 51°15.419 2°51.3 6.6 351 19.7 101820 75
2004-06-08 06:31:16 51°15.418 2°51.289 7.1 352 19.7 101820 75
2004-06-08 06:31:24 51°15.414 2°51.243 7 348 19.6 101820 75
2004-06-08 06:31:29 51°15.412 2°51.215 7 354 19.6 101820 75
2004-06-08 06:31:33 51°15.41 2°51.192 7.1 353 19.6 101820 75
2004-06-08 06:31:38 51°15.407 2°51.164 6.5 354 19.6 101820 75
2004-06-08 06:31:42 51°15.405 2°51.141 7.3 353 19.6 101830 75
2004-06-08 06:31:49 51°15.402 2°51.101 7.2 356 19.6 101830 75
2004-06-08 06:31:54 51°15.4 2°51.073 6.9 352 19.5 101830 76
2004-06-08 06:31:58 51°15.398 2°51.05 7.2 349 19.5 101830 76
2004-06-08 06:32:04 51°15.395 2°51.016 6.9 352 19.5 101830 76
2004-06-08 06:32:09 51°15.392 2°50.988 7.1 350 19.5 101830 76
2004-06-08 06:32:14 51°15.388 2°50.96 6.8 348 19.5 101830 76
2004-06-08 06:32:18 51°15.385 2°50.937 7.4 347 19.5 101830 76
2004-06-08 06:32:23 51°15.382 2°50.91 7.5 345 19.4 101830 76
2004-06-08 06:32:29 51°15.377 2°50.877 7.2 348 19.4 101830 76
2004-06-08 06:32:34 51°15.373 2°50.849 7.6 343 19.4 101830 77
2004-06-08 06:32:44 51°15.365 2°50.793 7.5 344 19.4 101830 77
2004-06-08 06:32:51 51°15.36 2°50.754 6.8 348 19.3 101830 77
2004-06-08 06:32:56 51°15.356 2°50.726 7.5 342 19.3 101830 77
2004-06-08 06:33:02 51°15.351 2°50.692 7.1 344 19.3 101830 77
2004-06-08 06:33:05 51°15.349 2°50.676 7 345 19.3 101830 77
2004-06-08 06:33:11 51°15.344 2°50.642 6.7 345 19.3 101830 77
2004-06-08 06:33:17 51°15.339 2°50.608 7.1 343 19.3 101830 77
2004-06-08 06:33:21 51°15.336 2°50.586 7.4 346 19.3 101830 77
2004-06-08 06:33:26 51°15.332 2°50.558 6.8 350 19.3 101830 77
2004-06-08 06:33:32 51°15.328 2°50.524 6.8 349 19.2 101820 77
2004-06-08 06:33:36 51°15.325 2°50.502 7.3 347 19.2 101820 77
2004-06-08 06:33:40 51°15.322 2°50.48 6.6 351 19.2 101830 78
2004-06-08 06:33:49 51°15.315 2°50.429 7.1 351 19.2 101830 78
2004-06-08 06:33:56 51°15.31 2°50.39 6.9 349 19.2 101830 78
2004-06-08 06:34:01 51°15.306 2°50.362 7.3 352 19.2 101830 78
2004-06-08 06:34:06 51°15.302 2°50.334 7.7 347 19.2 101830 78
2004-06-08 06:34:10 51°15.299 2°50.311 7.6 343 19.2 101830 78
2004-06-08 06:34:16 51°15.294 2°50.278 7.8 345 19.2 101830 78
2004-06-08 06:34:21 51°15.291 2°50.249 7.5 346 19.2 101830 78
2004-06-08 06:34:26 51°15.287 2°50.221 7.5 346 19.2 101830 78
2004-06-08 06:34:30 51°15.284 2°50.199 7.4 344 19.2 101830 78
2004-06-08 06:34:36 51°15.28 2°50.165 8 344 19.2 101830 78
2004-06-08 06:34:41 51°15.278 2°50.137 7.9 337 19.2 101830 78
2004-06-08 06:34:45 51°15.275 2°50.114 8 338 19.2 101830 78
2004-06-08 06:34:50 51°15.272 2°50.086 7.6 339 19.2 101830 78
2004-06-08 06:34:53 51°15.271 2°50.069 7.7 338 19.2 101820 78
2004-06-08 06:35:00 51°15.266 2°50.03 8 339 19.2 101820 78
2004-06-08 06:35:05 51°15.263 2°50.001 8.6 339 19.1 101820 78
2004-06-08 06:35:10 51°15.26 2°49.973 7.5 338 19.1 101820 78
2004-06-08 06:35:15 51°15.257 2°49.945 8.2 339 19.1 101820 78
2004-06-08 06:35:20 51°15.254 2°49.917 7.9 336 19.1 101820 78
2004-06-08 06:35:25 51°15.251 2°49.889 8.2 338 19.1 101820 78
2004-06-08 06:35:30 51°15.248 2°49.861 7.7 337 19.1 101820 78
2004-06-08 06:35:36 51°15.245 2°49.827 8.4 338 19.1 101820 78
2004-06-08 06:35:40 51°15.242 2°49.805 8.3 335 19.1 101820 78
2004-06-08 06:35:46 51°15.238 2°49.771 8.2 335 19.1 101820 78
2004-06-08 06:35:50 51°15.236 2°49.749 7.8 337 19.1 101820 78
2004-06-08 06:35:53 51°15.234 2°49.732 8.4 336 19.1 101830 78
2004-06-08 06:36:01 51°15.229 2°49.686 8 339 19.1 101830 78
2004-06-08 06:36:06 51°15.226 2°49.658 8 335 19.1 101820 78
2004-06-08 06:36:10 51°15.224 2°49.635 7.7 336 19.1 101820 78
2004-06-08 06:36:16 51°15.22 2°49.602 8.2 336 19.1 101820 78
2004-06-08 06:36:21 51°15.217 2°49.573 7.6 335 19.1 101820 78
2004-06-08 06:36:25 51°15.214 2°49.551 8.1 335 19.1 101820 78
2004-06-08 06:36:29 51°15.211 2°49.528 8.4 334 19.1 101820 78
2004-06-08 06:36:36 51°15.207 2°49.489 7.8 333 19.1 101820 78
2004-06-08 06:36:40 51°15.204 2°49.466 7.8 332 19.1 101820 78
2004-06-08 06:36:46 51°15.2 2°49.432 8.4 333 19.1 101830 78
2004-06-08 06:36:50 51°15.198 2°49.41 8 334 19.1 101830 78
2004-06-08 06:36:56 51°15.194 2°49.376 8.6 332 19.1 101820 78
2004-06-08 06:37:00 51°15.192 2°49.353 7.8 333 19.1 101820 78
2004-06-08 06:37:05 51°15.188 2°49.325 7.9 332 19.1 101820 78
2004-06-08 06:37:10 51°15.185 2°49.296 8 330 19.1 101820 78
2004-06-08 06:37:16 51°15.181 2°49.262 8 332 19.1 101820 78
2004-06-08 06:37:21 51°15.178 2°49.234 8.8 330 19.1 101820 78
2004-06-08 06:37:26 51°15.175 2°49.205 7.9 330 19.1 101830 78
2004-06-08 06:37:30 51°15.172 2°49.182 8.5 330 19.1 101830 78
2004-06-08 06:37:36 51°15.168 2°49.148 8.3 330 19.1 101820 78
2004-06-08 06:37:40 51°15.166 2°49.125 8.2 332 19.1 101820 78
2004-06-08 06:37:45 51°15.162 2°49.097 7.8 333 19.1 101820 78
2004-06-08 06:37:49 51°15.16 2°49.074 8.5 332 19.1 101820 78
2004-06-08 06:37:56 51°15.156 2°49.034 8.1 333 19.1 101820 78
2004-06-08 06:37:59 51°15.154 2°49.017 8.2 333 19.1 101820 78
2004-06-08 06:38:05 51°15.151 2°48.983 8.1 335 19.1 101820 78
2004-06-08 06:38:10 51°15.147 2°48.954 7.7 338 19.1 101820 78
2004-06-08 06:38:15 51°15.144 2°48.925 8 335 19.1 101820 78
2004-06-08 06:38:20 51°15.141 2°48.897 8.3 335 19.1 101820 78
2004-06-08 06:38:26 51°15.137 2°48.863 7.8 333 19.1 101830 78
2004-06-08 06:38:29 51°15.135 2°48.846 8.3 335 19.1 101830 78
2004-06-08 06:38:36 51°15.131 2°48.805 8.2 335 19.1 101830 78
2004-06-08 06:38:41 51°15.128 2°48.777 7.6 336 19.1 101830 78
2004-06-08 06:38:45 51°15.126 2°48.754 8.2 336 19.2 101830 78
2004-06-08 06:38:50 51°15.123 2°48.725 7.5 334 19.2 101830 78
2004-06-08 06:38:56 51°15.119 2°48.691 8 338 19.2 101830 78
2004-06-08 06:39:01 51°15.116 2°48.663 7.4 335 19.2 101830 78
2004-06-08 06:39:06 51°15.112 2°48.634 8.1 337 19.2 101830 78
2004-06-08 06:39:10 51°15.11 2°48.612 8 336 19.2 101830 78
2004-06-08 06:39:16 51°15.105 2°48.578 8.1 336 19.1 101830 78
2004-06-08 06:39:20 51°15.103 2°48.555 7.7 336 19.1 101830 78
2004-06-08 06:39:25 51°15.099 2°48.526 7.8 335 19.2 101830 78
2004-06-08 06:39:30 51°15.096 2°48.498 8 335 19.2 101830 78
2004-06-08 06:39:36 51°15.092 2°48.464 8 333 19.1 101830 78
2004-06-08 06:39:41 51°15.089 2°48.435 8.1 332 19.1 101830 78
2004-06-08 06:39:46 51°15.086 2°48.407 8.1 334 19.1 101830 78
2004-06-08 06:39:50 51°15.084 2°48.384 7.5 334 19.1 101830 78
2004-06-08 06:39:55 51°15.081 2°48.355 7.4 333 19.1 101830 78
2004-06-08 06:40:01 51°15.077 2°48.321 7.9 336 19.1 101830 78
2004-06-08 06:40:04 51°15.075 2°48.304 8.1 334 19.1 101830 78
2004-06-08 06:40:10 51°15.071 2°48.27 7.6 334 19.1 101830 78
2004-06-08 06:40:16 51°15.067 2°48.236 8 333 19.1 101830 78
2004-06-08 06:40:21 51°15.064 2°48.207 8.3 334 19.1 101830 78
2004-06-08 06:40:26 51°15.06 2°48.179 7.9 331 19.1 101830 78
2004-06-08 06:40:30 51°15.058 2°48.156 8.4 332 19.1 101830 78
2004-06-08 06:40:36 51°15.054 2°48.122 8.6 330 19.1 101830 78
2004-06-08 06:40:41 51°15.051 2°48.093 8 330 19.1 101830 78
2004-06-08 06:40:46 51°15.048 2°48.065 8 331 19.1 101830 78
2004-06-08 06:40:50 51°15.045 2°48.042 8.6 330 19.1 101830 78
2004-06-08 06:40:56 51°15.042 2°48.008 8.3 329 19.1 101830 78
2004-06-08 06:41:00 51°15.04 2°47.985 8.7 330 19.1 101830 78
2004-06-08 06:41:05 51°15.037 2°47.956 9 328 19.1 101830 78
2004-06-08 06:41:10 51°15.034 2°47.928 8.3 329 19.1 101830 78
2004-06-08 06:41:14 51°15.032 2°47.905 8.5 329 19.1 101830 78
2004-06-08 06:41:21 51°15.028 2°47.865 8.9 329 19.1 101830 78
2004-06-08 06:41:25 51°15.026 2°47.842 8.5 329 19.1 101830 78
2004-06-08 06:41:29 51°15.023 2°47.819 8.9 329 19.1 101830 78
2004-06-08 06:41:36 51°15.019 2°47.779 8.5 330 19.1 101830 78
2004-06-08 06:41:41 51°15.017 2°47.75 8.5 330 19.1 101830 78
2004-06-08 06:41:45 51°15.014 2°47.727 7.9 330 19.1 101830 78
2004-06-08 06:41:48 51°15.013 2°47.71 8.9 330 19.1 101830 78
2004-06-08 06:41:58 51°15.007 2°47.653 8.4 329 19.1 101820 78
2004-06-08 06:42:04 51°15.004 2°47.619 8.8 332 19.1 101820 78
2004-06-08 06:42:09 51°15.001 2°47.59 9 330 19.1 101820 78
2004-06-08 06:42:13 51°14.999 2°47.567 8.4 330 19.1 101830 78
2004-06-08 06:42:18 51°14.996 2°47.539 9.1 331 19.1 101830 78
2004-06-08 06:42:22 51°14.994 2°47.516 8.8 330 19.1 101830 78
2004-06-08 06:42:29 51°14.989 2°47.476 8.8 331 19.1 101830 78
2004-06-08 06:42:34 51°14.986 2°47.448 9.1 330 19.1 101820 78
2004-06-08 06:42:38 51°14.984 2°47.425 8.8 330 19.1 101820 78
2004-06-08 06:42:44 51°14.98 2°47.391 8.3 329 19.1 101830 78
2004-06-08 06:42:49 51°14.977 2°47.363 8.6 329 19.1 101830 78
2004-06-08 06:42:53 51°14.975 2°47.34 8.5 331 19.1 101830 78
2004-06-08 06:42:58 51°14.972 2°47.311 8.6 331 19.1 101830 78
2004-06-08 06:43:04 51°14.969 2°47.277 8.5 331 19.1 101820 78
2004-06-08 06:43:09 51°14.966 2°47.249 8 329 19.1 101820 78
2004-06-08 06:43:13 51°14.964 2°47.226 8.1 330 19.1 101830 78
2004-06-08 06:43:18 51°14.961 2°47.198 8.9 331 19.1 101830 78
2004-06-08 06:43:22 51°14.959 2°47.175 8.4 331 19.1 101830 78
2004-06-08 06:43:28 51°14.955 2°47.141 8.2 331 19.1 101830 78
2004-06-08 06:43:34 51°14.951 2°47.108 8.1 332 19.1 101830 78
2004-06-08 06:43:36 51°14.95 2°47.096 8.5 332 19.1 101830 78
2004-06-08 06:43:45 51°14.945 2°47.046 8.6 331 19.1 101830 78
2004-06-08 06:43:51 51°14.941 2°47.012 8.3 330 19.1 101830 78
2004-06-08 06:43:57 51°14.938 2°46.978 7.9 331 19.1 101830 78
2004-06-08 06:44:01 51°14.936 2°46.955 8 331 19.1 101830 78
2004-06-08 06:44:07 51°14.933 2°46.922 8.5 330 19.1 101830 78
2004-06-08 06:44:10 51°14.931 2°46.905 7.9 332 19.1 101830 78
2004-06-08 06:44:17 51°14.927 2°46.865 8.7 331 19.1 101830 78
2004-06-08 06:44:22 51°14.925 2°46.837 7.8 331 19.1 101830 78
2004-06-08 06:44:26 51°14.923 2°46.814 8.6 331 19.1 101830 78
2004-06-08 06:44:32 51°14.919 2°46.78 8.1 331 19.1 101830 78
2004-06-08 06:44:36 51°14.917 2°46.757 8.8 330 19.1 101830 78
2004-06-08 06:44:40 51°14.915 2°46.735 8.5 331 19.1 101830 78
2004-06-08 06:44:49 51°14.91 2°46.684 7.8 330 19.1 101830 78
2004-06-08 06:44:56 51°14.906 2°46.644 7.7 330 19.1 101830 78
2004-06-08 06:45:01 51°14.903 2°46.616 8.6 331 19.1 101830 78
2004-06-08 06:45:06 51°14.901 2°46.587 8.6 330 19.1 101830 78
2004-06-08 06:45:10 51°14.899 2°46.564 8 330 19.1 101830 78
2004-06-08 06:45:16 51°14.895 2°46.53 8 330 19.1 101830 78
2004-06-08 06:45:21 51°14.893 2°46.502 8.6 331 19.1 101830 78
2004-06-08 06:45:26 51°14.89 2°46.473 8.1 330 19.1 101840 78
2004-06-08 06:45:30 51°14.888 2°46.451 8.8 330 19.1 101840 78
2004-06-08 06:45:36 51°14.884 2°46.416 8.5 329 19.1 101830 78
2004-06-08 06:45:41 51°14.882 2°46.388 8.5 329 19.1 101830 78
2004-06-08 06:45:45 51°14.88 2°46.365 8.6 330 19.1 101830 78
2004-06-08 06:45:50 51°14.877 2°46.336 8.5 330 19.1 101830 78
2004-06-08 06:45:53 51°14.876 2°46.319 8.8 330 19.1 101830 78
2004-06-08 06:46:00 51°14.872 2°46.279 8.1 330 19.1 101830 78
2004-06-08 06:46:05 51°14.869 2°46.25 8.2 331 19 101830 78
2004-06-08 06:46:10 51°14.866 2°46.221 8.2 330 19 101830 78
2004-06-08 06:46:15 51°14.863 2°46.193 8.6 331 19 101830 78
2004-06-08 06:46:20 51°14.86 2°46.164 8.5 330 19 101830 78
2004-06-08 06:46:25 51°14.858 2°46.135 8.4 330 19 101830 78
2004-06-08 06:46:30 51°14.855 2°46.106 8.8 330 19 101830 78
2004-06-08 06:46:36 51°14.852 2°46.072 8.7 330 19 101830 79
2004-06-08 06:46:40 51°14.849 2°46.049 8.6 332 19 101830 79
2004-06-08 06:46:46 51°14.846 2°46.014 8.3 332 19 101830 79
2004-06-08 06:46:50 51°14.843 2°45.991 8.8 332 19 101830 79
2004-06-08 06:46:53 51°14.841 2°45.974 8.8 331 19 101830 79
2004-06-08 06:47:01 51°14.835 2°45.929 9 332 19 101830 79
2004-06-08 06:47:05 51°14.832 2°45.906 9.1 330 19 101830 79
2004-06-08 06:47:10 51°14.829 2°45.877 9 331 19 101830 79
2004-06-08 06:47:16 51°14.824 2°45.843 8.4 331 19 101830 79
2004-06-08 06:47:21 51°14.821 2°45.814 8.3 331 19 101830 79
2004-06-08 06:47:25 51°14.818 2°45.791 9 330 18.9 101830 79
2004-06-08 06:47:29 51°14.815 2°45.768 8.3 332 18.9 101830 79
2004-06-08 06:47:36 51°14.81 2°45.728 9 330 19 101830 79
2004-06-08 06:47:40 51°14.807 2°45.705 8.3 331 19 101830 79
2004-06-08 06:47:44 51°14.804 2°45.682 8.6 330 19 101830 79
2004-06-08 06:47:49 51°14.801 2°45.653 8.4 331 19 101830 79
2004-06-08 06:48:01 51°14.791 2°45.584 8.3 333 18.9 101830 79
2004-06-08 06:48:08 51°14.786 2°45.544 8.7 331 18.9 101830 79
2004-06-08 06:48:13 51°14.783 2°45.515 8.2 335 19 101830 79
2004-06-08 06:48:18 51°14.779 2°45.486 8.1 332 19 101830 79
2004-06-08 06:48:23 51°14.775 2°45.458 8.6 332 18.9 101830 79
2004-06-08 06:48:28 51°14.772 2°45.429 8.5 334 18.9 101830 79
2004-06-08 06:48:33 51°14.769 2°45.4 7.9 333 18.9 101830 79
2004-06-08 06:48:38 51°14.765 2°45.371 8.4 332 18.9 101830 79
2004-06-08 06:48:42 51°14.762 2°45.348 8 333 18.9 101830 79
2004-06-08 06:48:48 51°14.757 2°45.314 8.6 332 18.9 101830 79
2004-06-08 06:48:53 51°14.754 2°45.285 8 332 18.9 101830 79
2004-06-08 06:48:58 51°14.75 2°45.256 8.3 332 18.9 101830 79
2004-06-08 06:49:02 51°14.747 2°45.233 8 332 18.9 101830 79
2004-06-08 06:49:08 51°14.742 2°45.198 8.1 331 18.9 101830 79
2004-06-08 06:49:13 51°14.739 2°45.169 8 331 18.9 101830 79
2004-06-08 06:49:18 51°14.736 2°45.141 8.5 333 18.9 101830 79
2004-06-08 06:49:22 51°14.733 2°45.117 8.4 332 18.9 101830 79
2004-06-08 06:49:28 51°14.729 2°45.083 8.1 331 18.9 101830 79
2004-06-08 06:49:32 51°14.726 2°45.06 8.5 332 18.9 101830 79
2004-06-08 06:49:38 51°14.722 2°45.025 8.5 330 18.9 101830 79
2004-06-08 06:49:42 51°14.719 2°45.002 8.2 331 18.9 101830 79
2004-06-08 06:49:48 51°14.714 2°44.967 8.5 330 18.9 101830 79
2004-06-08 06:49:52 51°14.712 2°44.944 8.3 331 18.9 101830 79
2004-06-08 06:49:58 51°14.707 2°44.91 8.3 332 18.9 101830 79
2004-06-08 06:50:02 51°14.705 2°44.886 8.3 332 18.9 101830 79
2004-06-08 06:50:08 51°14.7 2°44.852 8 332 18.9 101830 79
2004-06-08 06:50:12 51°14.697 2°44.829 7.8 333 18.9 101830 79
2004-06-08 06:50:15 51°14.695 2°44.812 8.1 332 18.9 101830 79
2004-06-08 06:50:22 51°14.691 2°44.771 7.5 334 18.9 101830 79
2004-06-08 06:50:28 51°14.686 2°44.737 7.7 333 18.9 101830 79
2004-06-08 06:50:32 51°14.684 2°44.714 7.7 333 18.8 101830 79
2004-06-08 06:50:36 51°14.681 2°44.691 8.2 335 18.8 101830 79
2004-06-08 06:50:46 51°14.674 2°44.633 8.1 334 18.8 101830 79
2004-06-08 06:50:52 51°14.67 2°44.598 8.3 333 18.9 101840 79
2004-06-08 06:50:56 51°14.667 2°44.576 7.8 336 18.9 101840 79
2004-06-08 06:51:00 51°14.665 2°44.553 8.3 332 18.9 101830 79
2004-06-08 06:51:07 51°14.66 2°44.513 8 334 18.9 101830 79
2004-06-08 06:51:12 51°14.656 2°44.484 8 333 18.9 101830 79
2004-06-08 06:51:17 51°14.653 2°44.455 7.9 335 18.9 101830 79
2004-06-08 06:51:21 51°14.65 2°44.432 7.9 335 18.9 101840 79
2004-06-08 06:51:26 51°14.647 2°44.403 8.1 334 18.9 101840 79
2004-06-08 06:51:32 51°14.643 2°44.369 7.9 335 18.9 101830 79
2004-06-08 06:51:36 51°14.64 2°44.346 8 335 18.9 101830 79
2004-06-08 06:51:42 51°14.635 2°44.312 8 335 18.8 101840 79
2004-06-08 06:51:46 51°14.632 2°44.289 7.7 335 18.8 101840 79
2004-06-08 06:51:52 51°14.627 2°44.256 7.5 334 18.8 101840 79
2004-06-08 06:51:56 51°14.625 2°44.232 7.6 334 18.8 101840 79
2004-06-08 06:52:02 51°14.62 2°44.199 7.3 336 18.9 101840 79
2004-06-08 06:52:07 51°14.616 2°44.17 7.4 335 18.9 101840 79
2004-06-08 06:52:12 51°14.613 2°44.141 7.3 335 18.9 101840 79
2004-06-08 06:52:16 51°14.61 2°44.118 7.5 332 18.9 101840 79
2004-06-08 06:52:22 51°14.605 2°44.084 7.9 333 18.9 101840 79
2004-06-08 06:52:26 51°14.603 2°44.061 7.3 335 18.9 101840 79
2004-06-08 06:52:32 51°14.599 2°44.027 7.1 336 18.8 101840 79
2004-06-08 06:52:36 51°14.596 2°44.004 7.9 335 18.8 101840 79
2004-06-08 06:52:42 51°14.592 2°43.97 7.2 335 18.9 101840 79
2004-06-08 06:52:46 51°14.589 2°43.947 7.7 337 18.9 101840 79
2004-06-08 06:52:50 51°14.586 2°43.924 8.1 334 18.9 101840 79
2004-06-08 06:52:57 51°14.581 2°43.884 7.8 334 18.9 101840 79
2004-06-08 06:53:01 51°14.578 2°43.861 7.8 335 18.9 101830 79
2004-06-08 06:53:05 51°14.575 2°43.838 8 334 18.9 101830 79
2004-06-08 06:53:11 51°14.571 2°43.804 7.4 334 18.9 101830 79
2004-06-08 06:53:17 51°14.567 2°43.77 7.6 334 18.9 101830 79
2004-06-08 06:53:22 51°14.564 2°43.741 7.8 334 18.9 101840 79
2004-06-08 06:53:26 51°14.562 2°43.718 7.7 335 18.9 101840 79
2004-06-08 06:53:29 51°14.56 2°43.7 7.3 333 18.9 101840 79
2004-06-08 06:53:37 51°14.554 2°43.654 7.8 336 18.9 101840 79
2004-06-08 06:53:41 51°14.552 2°43.631 7.3 334 18.9 101840 79
2004-06-08 06:53:45 51°14.549 2°43.608 7.4 335 18.9 101840 79
2004-06-08 06:53:51 51°14.545 2°43.573 7.9 335 18.9 101840 79
2004-06-08 06:53:57 51°14.541 2°43.539 7.4 337 18.9 101840 79
2004-06-08 06:54:01 51°14.538 2°43.516 7.8 336 18.9 101840 79
2004-06-08 06:54:07 51°14.534 2°43.481 7.6 336 18.9 101840 79
2004-06-08 06:54:10 51°14.532 2°43.464 7.4 335 18.9 101840 79
2004-06-08 06:54:17 51°14.528 2°43.423 7.5 336 18.9 101840 79
2004-06-08 06:54:22 51°14.524 2°43.395 7.3 336 18.8 101840 79
2004-06-08 06:54:25 51°14.523 2°43.377 7.9 336 18.8 101840 79
2004-06-08 06:54:31 51°14.519 2°43.343 7.6 337 18.8 101840 79
2004-06-08 06:54:36 51°14.516 2°43.314 7.3 338 18.8 101840 79
2004-06-08 06:54:41 51°14.513 2°43.285 7.7 338 18.8 101840 79
2004-06-08 06:54:46 51°14.509 2°43.257 7.3 336 18.8 101840 79
2004-06-08 06:54:52 51°14.505 2°43.222 7.7 335 18.8 101840 79
2004-06-08 06:54:55 51°14.503 2°43.205 7.9 335 18.8 101840 79
2004-06-08 06:55:02 51°14.499 2°43.165 7.7 337 18.8 101830 79
2004-06-08 06:55:07 51°14.495 2°43.136 7.9 337 18.8 101830 79
2004-06-08 06:55:12 51°14.492 2°43.107 7.3 336 18.8 101840 79
2004-06-08 06:55:16 51°14.489 2°43.085 7.5 336 18.8 101840 79
2004-06-08 06:55:21 51°14.485 2°43.056 7.5 335 18.8 101830 79
2004-06-08 06:55:26 51°14.482 2°43.027 8.1 335 18.8 101830 79
2004-06-08 06:55:32 51°14.478 2°42.993 7.6 335 18.8 101840 79
2004-06-08 06:55:37 51°14.474 2°42.964 8 336 18.8 101840 79
2004-06-08 06:55:42 51°14.471 2°42.936 7.5 335 18.8 101830 79
2004-06-08 06:55:45 51°14.469 2°42.918 8.1 336 18.8 101830 79
2004-06-08 06:55:52 51°14.464 2°42.878 7.5 335 18.8 101830 79
2004-06-08 06:55:56 51°14.462 2°42.855 7.5 336 18.8 101830 79
2004-06-08 06:56:01 51°14.458 2°42.827 7.5 336 18.8 101830 79
2004-06-08 06:56:06 51°14.455 2°42.798 8.1 336 18.8 101830 79
2004-06-08 06:56:12 51°14.451 2°42.764 8 336 18.8 101830 79
2004-06-08 06:56:16 51°14.449 2°42.741 8.3   18.8 101830 79
2004-06-08 06:56:21 51°14.445 2°42.712 7.7 336 18.7 101830 79
2004-06-08 06:56:26 51°14.442 2°42.684 8 336 18.7 101830 79
2004-06-08 06:56:32 51°14.438 2°42.649 8.3 337 18.7 101830 79
2004-06-08 06:56:35 51°14.436 2°42.632 8.3 336 18.7 101830 79
2004-06-08 06:56:42 51°14.431 2°42.591 8.7 334 18.7 101830 79
2004-06-08 06:56:46 51°14.429 2°42.568 7.8 336 18.7 101830 79
2004-06-08 06:56:52 51°14.425 2°42.534 8.1 335 18.7 101830 79
2004-06-08 06:56:56 51°14.422 2°42.51 8.1 336 18.7 101830 79
2004-06-08 06:57:06 51°14.415 2°42.453 8.4 335 18.7 101830 79
2004-06-08 06:57:12 51°14.412 2°42.419 8.9 334 18.7 101830 80
2004-06-08 06:57:16 51°14.409 2°42.396 8.2 335 18.7 101830 80
2004-06-08 06:57:20 51°14.407 2°42.372 9.1 335 18.7 101840 80
2004-06-08 06:57:27 51°14.403 2°42.332 8.3 334 18.7 101840 80
2004-06-08 06:57:32 51°14.4 2°42.303 8.7 333 18.7 101840 80
2004-06-08 06:57:37 51°14.397 2°42.275 8.4 332 18.7 101840 80
2004-06-08 06:57:41 51°14.394 2°42.252 8.5 334 18.7 101830 80
2004-06-08 06:57:46 51°14.391 2°42.223 8.7 331 18.7 101830 80
2004-06-08 06:57:52 51°14.386 2°42.188 8.6 333 18.7 101830 80
2004-06-08 06:57:56 51°14.384 2°42.165 8.7 332 18.7 101830 80
2004-06-08 06:58:02 51°14.38 2°42.131 9.1 332 18.7 101830 80
2004-06-08 06:58:06 51°14.377 2°42.108 9.3 331 18.7 101830 80
2004-06-08 06:58:12 51°14.373 2°42.073 9.1 332 18.7 101830 80
2004-06-08 06:58:16 51°14.37 2°42.05 9.1 332 18.7 101830 80
2004-06-08 06:58:22 51°14.367 2°42.016 8.8 332 18.7 101830 80
2004-06-08 06:58:27 51°14.364 2°41.987 9 331 18.7 101830 80
2004-06-08 06:58:30 51°14.362 2°41.97 9.3 331 18.7 101830 80
2004-06-08 06:58:37 51°14.357 2°41.929 9.2 332 18.7 101830 80
2004-06-08 06:58:41 51°14.355 2°41.906 9.3 331 18.7 101830 80
2004-06-08 06:58:45 51°14.352 2°41.883 8.8 333 18.7 101830 80
2004-06-08 06:58:51 51°14.347 2°41.849 9.2 333 18.7 101830 80
2004-06-08 06:58:57 51°14.342 2°41.814 8.8 333 18.7 101830 80
2004-06-08 06:59:02 51°14.338 2°41.786 9 332 18.7 101830 80
2004-06-08 06:59:06 51°14.335 2°41.763 9.1 333 18.7 101830 80
2004-06-08 06:59:12 51°14.33 2°41.728 8.9 332 18.7 101830 80
2004-06-08 06:59:17 51°14.326 2°41.7 8.7 333 18.7 101830 80
2004-06-08 06:59:22 51°14.323 2°41.671 8.9 331 18.7 101830 80
2004-06-08 06:59:24 51°14.322 2°41.659 9.1 334 18.7 101830 80
2004-06-08 06:59:32 51°14.316 2°41.613 8.2 332 18.7 101830 79
2004-06-08 06:59:37 51°14.313 2°41.584 8.4 332 18.7 101830 79
2004-06-08 06:59:42 51°14.309 2°41.555 8.1 333 18.8 101830 79
2004-06-08 06:59:45 51°14.307 2°41.538 8.7 335 18.8 101830 79
2004-06-08 06:59:52 51°14.302 2°41.498 8.6 334 18.8 101830 79
2004-06-08 06:59:57 51°14.299 2°41.47 8.4 333 18.8 101830 79
2004-06-08 07:00:01 51°14.296 2°41.447 8 334 18.8 101830 79
2004-06-08 07:00:06 51°14.292 2°41.418 8.3 334 18.8 101830 79
2004-06-08 07:00:12 51°14.288 2°41.384 8.4 333 18.8 101830 79
2004-06-08 07:00:17 51°14.286 2°41.355 7.9 333 18.8 101830 79
2004-06-08 07:00:21 51°14.283 2°41.332 8.4 333 18.8 101840 79
2004-06-08 07:00:24 51°14.282 2°41.315 8 333 18.8 101840 79
2004-06-08 07:00:32 51°14.279 2°41.268 7.9 333 18.8 101830 79
2004-06-08 07:00:35 51°14.278 2°41.251 8 333 18.8 101830 79
2004-06-08 07:00:41 51°14.277 2°41.216 7.4 332 18.8 101840 79
2004-06-08 07:00:46 51°14.275 2°41.187 8.3 330 18.8 101840 79
2004-06-08 07:00:52 51°14.274 2°41.152 7.7 329 18.8 101840 79
2004-06-08 07:00:56 51°14.272 2°41.128 8.1 331 18.8 101840 79
2004-06-08 07:01:01 51°14.271 2°41.099 7.9 331 18.8 101840 79
2004-06-08 07:01:07 51°14.269 2°41.064 7.6 333 18.8 101840 79
2004-06-08 07:01:12 51°14.267 2°41.035 7.8 331 18.8 101840 79
2004-06-08 07:01:22 51°14.264 2°40.977 8 332 18.8 101830 79
2004-06-08 07:01:28 51°14.262 2°40.942 7.4 332 18.8 101830 79
2004-06-08 07:01:33 51°14.261 2°40.913 7.7 333 18.8 101840 79
2004-06-08 07:01:38 51°14.259 2°40.884 7.4 336 18.8 101840 79
2004-06-08 07:01:42 51°14.258 2°40.86 7.9 334 18.8 101840 79
2004-06-08 07:01:48 51°14.256 2°40.825 7.6 334 18.8 101840 79
2004-06-08 07:01:52 51°14.255 2°40.801 7.3 334 18.8 101840 79
2004-06-08 07:01:56 51°14.253 2°40.778 7.4 334 18.8 101840 79
2004-06-08 07:02:04 51°14.251 2°40.731 7.6 333 18.8 101840 79
2004-06-08 07:02:09 51°14.249 2°40.701 7.5 333 18.8 101840 79
2004-06-08 07:02:16 51°14.247 2°40.66 7.6 334 18.8 101840 79
2004-06-08 07:02:21 51°14.246 2°40.631 7.6 335 18.8 101840 79
2004-06-08 07:02:25 51°14.245 2°40.608 7.8 334 18.8 101840 79
2004-06-08 07:02:30 51°14.244 2°40.579 7.5 333 18.8 101840 79
2004-06-08 07:02:36 51°14.242 2°40.544 7.9 332 18.8 101840 80
2004-06-08 07:02:41 51°14.241 2°40.514 7.8 333 18.8 101840 80
2004-06-08 07:02:43 51°14.24 2°40.503 7.5 334 18.8 101840 80
2004-06-08 07:02:49 51°14.238 2°40.467 8.2 331 18.8 101840 80
2004-06-08 07:02:55 51°14.236 2°40.432 8.1 331 18.8 101830 80
2004-06-08 07:03:00 51°14.235 2°40.402 7.7 333 18.8 101830 80
2004-06-08 07:03:05 51°14.233 2°40.372 7.6 333 18.8 101840 80
2004-06-08 07:03:10 51°14.231 2°40.343 7.8 331 18.8 101840 80
2004-06-08 07:03:16 51°14.229 2°40.307 8.1 333 18.8 101840 80
2004-06-08 07:03:20 51°14.228 2°40.283 7.6 333 18.8 101840 80
2004-06-08 07:03:25 51°14.227 2°40.254 7.8 331 18.8 101840 80
2004-06-08 07:03:30 51°14.226 2°40.224 7.9 331 18.8 101840 80
2004-06-08 07:03:36 51°14.224 2°40.188 7.7 332 18.8 101840 80
2004-06-08 07:03:41 51°14.223 2°40.159 8.3 330 18.8 101840 80
2004-06-08 07:03:45 51°14.222 2°40.135 7.9 331 18.8 101840 80
2004-06-08 07:03:49 51°14.221 2°40.112 8.3 331 18.8 101840 80
2004-06-08 07:03:56 51°14.218 2°40.071 7.9 332 18.8 101840 80
2004-06-08 07:04:00 51°14.217 2°40.047 8 331 18.8 101840 80
2004-06-08 07:04:05 51°14.216 2°40.017 7.9 331 18.8 101840 80
2004-06-08 07:04:10 51°14.214 2°39.987 7.8 331 18.8 101840 80
2004-06-08 07:04:16 51°14.212 2°39.952 7.8 331 18.8 101840 80
2004-06-08 07:04:21 51°14.211 2°39.922 7.7 331 18.8 101840 80
2004-06-08 07:04:25 51°14.21 2°39.899 8.2 331 18.8 101840 80
2004-06-08 07:04:29 51°14.208 2°39.875 7.5 331 18.8 101840 80
2004-06-08 07:04:35 51°14.207 2°39.839 8 330 18.8 101840 80
2004-06-08 07:04:40 51°14.206 2°39.81 8.1 331 18.8 101840 80
2004-06-08 07:04:45 51°14.205 2°39.78 7.6 330 18.8 101840 80
2004-06-08 07:04:50 51°14.204 2°39.751 7.9 330 18.8 101840 80
2004-06-08 07:04:56 51°14.202 2°39.716 7.6 331 18.8 101840 80
2004-06-08 07:05:01 51°14.201 2°39.686 8.1 330 18.8 101840 80
2004-06-08 07:05:06 51°14.2 2°39.657 7.7 330 18.8 101840 80
2004-06-08 07:05:10 51°14.199 2°39.633 8.3 330 18.8 101840 80
2004-06-08 07:05:16 51°14.197 2°39.598 7.7 329 18.7 101840 80
2004-06-08 07:05:21 51°14.196 2°39.569 7.7 330 18.7 101840 80
2004-06-08 07:05:25 51°14.195 2°39.546 7.5 330 18.7 101840 80
2004-06-08 07:05:30 51°14.193 2°39.517 8.1 328 18.7 101840 80
2004-06-08 07:05:35 51°14.192 2°39.487 7.9 328 18.8 101840 80
2004-06-08 07:05:40 51°14.191 2°39.458 8.1 328 18.8 101840 80
2004-06-08 07:05:46 51°14.189 2°39.423 8.2 329 18.7 101840 80
2004-06-08 07:05:49 51°14.189 2°39.406 8.4 327 18.7 101840 80
2004-06-08 07:05:56 51°14.187 2°39.365 7.7 328 18.8 101840 80
2004-06-08 07:06:00 51°14.186 2°39.342 8.2 328 18.8 101840 80
2004-06-08 07:06:04 51°14.185 2°39.318 7.8 327 18.8 101840 80
2004-06-08 07:06:09 51°14.183 2°39.29 7.8 328 18.8 101840 80
2004-06-08 07:06:16 51°14.181 2°39.249 7.9 328 18.8 101840 80
2004-06-08 07:06:21 51°14.179 2°39.22 8.3 327 18.8 101840 80
2004-06-08 07:06:25 51°14.178 2°39.197 7.9 327 18.8 101840 80
2004-06-08 07:06:30 51°14.177 2°39.168 8.1 328 18.8 101840 80
2004-06-08 07:06:35 51°14.175 2°39.138 7.8 327 18.8 101840 80
2004-06-08 07:06:40 51°14.174 2°39.11 8.3 327 18.8 101840 80
2004-06-08 07:06:46 51°14.172 2°39.075 7.9 328 18.8 101840 80
2004-06-08 07:06:49 51°14.171 2°39.057 8.3 327 18.8 101840 80
2004-06-08 07:06:55 51°14.169 2°39.022 8.4 328 18.8 101840 80
2004-06-08 07:07:01 51°14.167 2°38.987 8.3 328 18.8 101840 80
2004-06-08 07:07:05 51°14.166 2°38.964 7.8 327 18.8 101840 80
2004-06-08 07:07:10 51°14.164 2°38.934 8.4 328 18.8 101840 80
2004-06-08 07:07:16 51°14.163 2°38.898 7.6 328 18.8 101840 80
2004-06-08 07:07:21 51°14.162 2°38.869 8.1 328 18.8 101840 80
2004-06-08 07:07:24 51°14.161 2°38.851 8.5 328 18.8 101840 80
2004-06-08 07:07:30 51°14.159 2°38.816 8 329 18.8 101840 80
2004-06-08 07:07:35 51°14.158 2°38.786 8.6 329 18.8 101840 80
2004-06-08 07:07:41 51°14.156 2°38.751 7.9 329 18.8 101840 80
2004-06-08 07:07:44 51°14.155 2°38.733 8.4 329 18.8 101840 79
2004-06-08 07:07:50 51°14.153 2°38.697 8 330 18.8 101840 79
2004-06-08 07:07:56 51°14.151 2°38.662 8.5 330 18.8 101840 79
2004-06-08 07:08:00 51°14.15 2°38.638 8.6 329 18.8 101840 79
2004-06-08 07:08:04 51°14.149 2°38.614 8.5 332 18.8 101840 79
2004-06-08 07:08:11 51°14.146 2°38.573 8.9 330 18.8 101840 79
2004-06-08 07:08:15 51°14.144 2°38.55 8.6 331 18.8 101840 79
2004-06-08 07:08:21 51°14.14 2°38.514 9 331 18.8 101840 79
2004-06-08 07:08:25 51°14.137 2°38.491 8.5 332 18.8 101840 79
2004-06-08 07:08:30 51°14.134 2°38.462 8.7 332 18.8 101840 79
2004-06-08 07:08:36 51°14.129 2°38.427 9 333 18.9 101840 79
2004-06-08 07:08:40 51°14.126 2°38.403 9.3 332 18.9 101840 79
2004-06-08 07:08:44 51°14.122 2°38.38 9 333 18.9 101840 79
2004-06-08 07:08:51 51°14.117 2°38.34 9.1 331 18.9 101840 79
2004-06-08 07:08:55 51°14.113 2°38.316 8.9 332 18.8 101840 79
2004-06-08 07:09:01 51°14.108 2°38.282 9.1 332 18.8 101840 79
2004-06-08 07:09:04 51°14.106 2°38.264 8.7 333 18.9 101830 79
2004-06-08 07:09:09 51°14.102 2°38.235 8.7 331 18.9 101830 79
2004-06-08 07:09:16 51°14.096 2°38.194 9 333 18.8 101830 79
2004-06-08 07:09:21 51°14.092 2°38.165 8.9 332 18.8 101830 79
2004-06-08 07:09:25 51°14.089 2°38.142 9 331 18.9 101840 79
2004-06-08 07:09:28 51°14.087 2°38.125 8.8 333 18.9 101840 79
2004-06-08 07:09:35 51°14.081 2°38.084 8.5 332 18.9 101840 79
2004-06-08 07:09:40 51°14.077 2°38.055 9 332 18.9 101840 79
2004-06-08 07:09:45 51°14.073 2°38.027 8.5 335 18.9 101840 79
2004-06-08 07:09:50 51°14.068 2°37.998 8.8 334 18.9 101840 79
2004-06-08 07:10:00 51°14.057 2°37.942 9.2 335 18.9 101840 79
2004-06-08 07:10:08 51°14.047 2°37.897 9.4 335 18.9 101840 79
2004-06-08 07:10:13 51°14.04 2°37.87 9.2 337 18.9 101840 79
2004-06-08 07:10:18 51°14.034 2°37.842 9.3 336 18.9 101840 79
2004-06-08 07:10:22 51°14.028 2°37.821 9.3 337 18.9 101840 79
2004-06-08 07:10:28 51°14.02 2°37.788 9.5 336 18.9 101840 79
2004-06-08 07:10:33 51°14.013 2°37.761 9.1 337 18.9 101840 79
2004-06-08 07:10:37 51°14.007 2°37.739 9.2 337 18.9 101840 79
2004-06-08 07:10:41 51°14.001 2°37.718 8.8 337 18.9 101840 79
2004-06-08 07:10:48 51°13.992 2°37.679 9.2 337 18.9 101840 79
2004-06-08 07:10:52 51°13.986 2°37.657 8.7 337 18.9 101840 79
2004-06-08 07:10:58 51°13.978 2°37.624 8.7 337 18.9 101840 79
2004-06-08 07:11:02 51°13.973 2°37.602 8.8 338 18.9 101840 79
2004-06-08 07:11:08 51°13.964 2°37.569 9.1 337 18.9 101840 79
2004-06-08 07:11:12 51°13.959 2°37.548 8.9 337 18.9 101840 79
2004-06-08 07:11:16 51°13.953 2°37.526 9 337 18.9 101840 79
2004-06-08 07:11:22 51°13.945 2°37.493 9.1 337 18.9 101840 79
2004-06-08 07:11:28 51°13.937 2°37.46 8.9 336 18.9 101840 79
2004-06-08 07:11:32 51°13.931 2°37.438 9 338 18.9 101840 79
2004-06-08 07:11:38 51°13.923 2°37.405 9.2 337 18.9 101840 79
2004-06-08 07:11:41 51°13.919 2°37.388 8.6 338 18.8 101840 78
2004-06-08 07:11:48 51°13.91 2°37.35 8.8 337 18.8 101840 78
2004-06-08 07:11:52 51°13.905 2°37.328 8.6 337 18.8 101840 78
2004-06-08 07:11:58 51°13.896 2°37.295 9.1 337 18.8 101840 78
2004-06-08 07:12:02 51°13.891 2°37.273 9 337 18.9 101840 78
2004-06-08 07:12:08 51°13.883 2°37.24 9 338 18.9 101840 78
2004-06-08 07:12:12 51°13.877 2°37.217 9 337 18.9 101840 78
2004-06-08 07:12:18 51°13.869 2°37.184 8.9 338 18.9 101840 78
2004-06-08 07:12:22 51°13.864 2°37.162 8.5 338 18.9 101840 78
2004-06-08 07:12:28 51°13.856 2°37.129 9 338 18.9 101840 78
2004-06-08 07:12:33 51°13.849 2°37.102 8.5 339 18.9 101840 78
2004-06-08 07:12:38 51°13.842 2°37.074 8.9 339 18.9 101840 78
2004-06-08 07:12:41 51°13.838 2°37.058 8.5 340 18.8 101840 78
2004-06-08 07:12:48 51°13.829 2°37.019 8.4 340 18.8 101840 78
2004-06-08 07:12:52 51°13.823 2°36.997 8.6 340 18.8 101840 78
2004-06-08 07:12:57 51°13.816 2°36.969 8.8 340 18.8 101840 78
2004-06-08 07:13:01 51°13.811 2°36.947 8.2 340 18.8 101840 78
2004-06-08 07:13:08 51°13.802 2°36.909 8.6 340 18.8 101840 78
2004-06-08 07:13:13 51°13.795 2°36.881 8.5 340 18.8 101850 78
2004-06-08 07:13:18 51°13.788 2°36.853 8.4 340 18.8 101850 78
2004-06-08 07:13:21 51°13.785 2°36.837 8.1 340 18.8 101840 78
2004-06-08 07:13:28 51°13.776 2°36.798 8 342 18.8 101840 78
2004-06-08 07:13:33 51°13.769 2°36.771 8.6 342 18.8 101840 78
2004-06-08 07:13:37 51°13.763 2°36.749 8.4 343 18.8 101840 78
2004-06-08 07:13:42 51°13.756 2°36.722 8.6 343 18.8 101840 78
2004-06-08 07:13:48 51°13.747 2°36.69 8.6 343 18.8 101840 78
2004-06-08 07:13:52 51°13.741 2°36.668 8 342 18.8 101850 78
2004-06-08 07:13:57 51°13.733 2°36.642 8 343 18.8 101850 78
2004-06-08 07:14:02 51°13.725 2°36.615 7.8 345 18.8 101840 79
2004-06-08 07:14:08 51°13.715 2°36.584 7.9 344 18.8 101840 79
2004-06-08 07:14:12 51°13.708 2°36.563 8 345 18.7 101850 79
2004-06-08 07:14:17 51°13.699 2°36.537 7.8 345 18.7 101850 79
2004-06-08 07:14:22 51°13.691 2°36.511 8.2 345 18.7 101840 79
2004-06-08 07:14:28 51°13.681 2°36.479 8.1 345 18.7 101840 79
2004-06-08 07:14:32 51°13.674 2°36.459 8.1 345 18.6 101850 79
2004-06-08 07:14:34 51°13.671 2°36.448 8.2 344 18.6 101850 79
2004-06-08 07:14:47 51°13.65 2°36.38 7.9 345 18.6 101850 79
2004-06-08 07:14:52 51°13.641 2°36.354 7.7 345 18.6 101850 79
2004-06-08 07:14:56 51°13.634 2°36.333 8 346 18.6 101850 79
2004-06-08 07:15:02 51°13.624 2°36.301 7.9 345 18.5 101850 79
2004-06-08 07:15:07 51°13.616 2°36.275 7.8 346 18.5 101850 79
2004-06-08 07:15:12 51°13.607 2°36.249 8.3 346 18.5 101850 79
2004-06-08 07:15:17 51°13.599 2°36.223 8.3 347 18.5 101850 79
2004-06-08 07:15:21 51°13.592 2°36.202 7.9 346 18.5 101840 79
2004-06-08 07:15:25 51°13.585 2°36.181 7.7 346 18.5 101840 79
2004-06-08 07:15:30 51°13.577 2°36.154 7.9 345 18.4 101840 79
2004-06-08 07:15:37 51°13.565 2°36.117 8.1 346 18.4 101840 79
2004-06-08 07:15:42 51°13.557 2°36.091 8.1 347 18.4 101840 80
2004-06-08 07:15:45 51°13.551 2°36.075 7.8 346 18.4 101840 80
2004-06-08 07:15:52 51°13.54 2°36.038 8.2 345 18.4 101840 80
2004-06-08 07:15:57 51°13.532 2°36.012 8.3 346 18.4 101840 80
2004-06-08 07:16:02 51°13.523 2°35.985 8.1 346 18.3 101840 80
2004-06-08 07:16:05 51°13.518 2°35.969 8.5 346 18.3 101840 80
2004-06-08 07:16:12 51°13.507 2°35.932 8.3 346 18.3 101850 80
2004-06-08 07:16:15 51°13.502 2°35.916 8.4 345 18.3 101850 80
2004-06-08 07:16:21 51°13.492 2°35.885 8 346 18.3 101850 80
2004-06-08 07:16:26 51°13.484 2°35.858 8.2 346 18.3 101850 80
2004-06-08 07:16:32 51°13.473 2°35.827 8.6 345 18.2 101840 80
2004-06-08 07:16:36 51°13.466 2°35.805 8.3 346 18.2 101840 80
2004-06-08 07:16:41 51°13.458 2°35.779 8.7 345 18.2 101840 80
2004-06-08 07:16:45 51°13.451 2°35.758 8.6 345 18.2 101840 80
2004-06-08 07:16:51 51°13.441 2°35.727 8.4 346 18.2 101850 81
2004-06-08 07:16:57 51°13.432 2°35.695 8.7 345 18.2 101850 81
2004-06-08 07:17:01 51°13.425 2°35.673 8.4 346 18.1 101840 81
2004-06-08 07:17:05 51°13.419 2°35.652 9.1 344 18.1 101840 81
2004-06-08 07:17:10 51°13.41 2°35.626 8.6 347 18.1 101850 81
2004-06-08 07:17:17 51°13.399 2°35.589 8.9 345 18.1 101850 81
2004-06-08 07:17:22 51°13.391 2°35.563 8.8 346 18.1 101840 81
2004-06-08 07:17:26 51°13.384 2°35.543 9 344 18.1 101840 81
2004-06-08 07:17:32 51°13.374 2°35.511 4.4 343 18.1 101850 81
2004-06-08 07:17:37 51°13.366 2°35.485 8.9 343 18.1 101850 81
2004-06-08 07:17:42 51°13.358 2°35.459 9.1 344 18.1 101840 82
2004-06-08 07:17:44 51°13.355 2°35.449 8.7 344 18.1 101840 82
2004-06-08 07:17:49 51°13.347 2°35.423 9.2 343 18 101840 82
2004-06-08 07:17:56 51°13.336 2°35.386 9.2 344 18 101840 82
2004-06-08 07:18:00 51°13.329 2°35.366 8.9 344 18 101840 82
2004-06-08 07:18:04 51°13.322 2°35.345 8.7 343 18 101840 82
2004-06-08 07:18:12 51°13.308 2°35.304 8.7 343 18 101850 82
2004-06-08 07:18:17 51°13.3 2°35.279 8.9 343 18 101850 82
2004-06-08 07:18:21 51°13.293 2°35.259 8.9 343 18 101840 82
2004-06-08 07:18:27 51°13.282 2°35.229 9 343 18 101840 82
2004-06-08 07:18:32 51°13.273 2°35.204 8.8 342 18.1 101840 82
2004-06-08 07:18:37 51°13.264 2°35.178 8.8 343 18.1 101840 82
2004-06-08 07:18:42 51°13.255 2°35.153 9.2 343 18.1 101840 82
2004-06-08 07:18:46 51°13.248 2°35.133 8.8 342 18.1 101840 82
2004-06-08 07:18:52 51°13.237 2°35.103 9.1 342 18.1 101840 82
2004-06-08 07:18:57 51°13.228 2°35.078 8.7 343 18.1 101840 82
2004-06-08 07:19:02 51°13.219 2°35.053 9.1 343 18.1 101840 82
2004-06-08 07:19:06 51°13.212 2°35.033 8.7 341 18.1 101840 82
2004-06-08 07:19:11 51°13.203 2°35.008 8.7 343 18.1 101840 82
2004-06-08 07:19:17 51°13.192 2°34.978 8.9 342 18.1 101840 82
2004-06-08 07:19:22 51°13.183 2°34.952 9.2 343 18.2 101840 82
2004-06-08 07:19:25 51°13.178 2°34.937 9 341 18.2 101840 82
2004-06-08 07:19:32 51°13.166 2°34.902 9.3 342 18.2 101840 82
2004-06-08 07:19:37 51°13.157 2°34.877 8.5 342 18.2 101840 82
2004-06-08 07:19:41 51°13.15 2°34.857 8.5 343 18.3 101840 82
2004-06-08 07:19:46 51°13.141 2°34.831 8.9 343 18.3 101840 82
2004-06-08 07:19:52 51°13.131 2°34.801 9.1 344 18.3 101840 81
2004-06-08 07:19:53 51°13.129 2°34.796 9 342 18.3 101840 81
2004-06-08 07:20:02 51°13.113 2°34.75 8.8 343 18.3 101840 81
2004-06-08 07:20:06 51°13.106 2°34.73 8.6 342 18.3 101840 81
2004-06-08 07:20:12 51°13.096 2°34.7 9 341 18.3 101840 81
2004-06-08 07:20:16 51°13.089 2°34.68 9.1 342 18.3 101840 81
2004-06-08 07:20:22 51°13.078 2°34.65 8.9 343 18.4 101840 81
2004-06-08 07:20:26 51°13.071 2°34.63 9 342 18.4 101840 81
2004-06-08 07:20:32 51°13.06 2°34.6 8.9 345 18.4 101840 81
2004-06-08 07:20:35 51°13.055 2°34.585 8.5 343 18.4 101840 81
2004-06-08 07:20:42 51°13.042 2°34.549 8.6 343 18.4 101840 80
2004-06-08 07:20:46 51°13.035 2°34.529 9 344 18.4 101840 80
2004-06-08 07:20:52 51°13.024 2°34.5 8.6 343 18.5 101840 80
2004-06-08 07:20:54 51°13.021 2°34.49 8.6 343 18.5 101840 80
2004-06-08 07:21:01 51°13.008 2°34.454 9.1 343 18.5 101840 80
2004-06-08 07:21:05 51°13.001 2°34.434 9 342 18.5 101840 80
2004-06-08 07:21:12 51°12.988 2°34.399 8.7 343 18.5 101840 80
2004-06-08 07:21:17 51°12.979 2°34.374 9.1 343 18.5 101840 80
2004-06-08 07:21:21 51°12.972 2°34.354 8.6 343 18.5 101840 80
2004-06-08 07:21:26 51°12.963 2°34.329 8.8 342 18.5 101840 80
2004-06-08 07:21:30 51°12.956 2°34.309 9 344 18.5 101840 80
2004-06-08 07:21:37 51°12.944 2°34.273 9 343 18.5 101840 80
2004-06-08 07:21:41 51°12.937 2°34.253 8.8 343 18.6 101840 80
2004-06-08 07:21:45 51°12.93 2°34.233 8.9 342 18.6 101840 80
2004-06-08 07:21:52 51°12.918 2°34.198 9 343 18.6 101840 79
2004-06-08 07:21:57 51°12.909 2°34.173 8.6 343 18.6 101840 79
2004-06-08 07:22:01 51°12.902 2°34.152 8.8 343 18.6 101840 79
2004-06-08 07:22:07 51°12.891 2°34.122 8.5 342 18.6 101840 79
2004-06-08 07:22:17 51°12.874 2°34.072 8.8 343 18.6 101840 79
2004-06-08 07:22:20 51°12.869 2°34.056 8.4 342 18.6 101840 79
2004-06-08 07:22:25 51°12.86 2°34.031 8.3 343 18.6 101840 79
2004-06-08 07:22:33 51°12.846 2°33.991 8.7 343 18.6 101840 79
2004-06-08 07:22:38 51°12.837 2°33.965 8.5 343 18.6 101840 79
2004-06-08 07:22:41 51°12.832 2°33.95 8.5 342 18.6 101840 79
2004-06-08 07:22:47 51°12.821 2°33.919 8.3 344 18.6 101840 79
2004-06-08 07:22:52 51°12.813 2°33.894 8.6 344 18.6 101850 79
2004-06-08 07:22:58 51°12.802 2°33.864 8.1 344 18.6 101850 79
2004-06-08 07:23:03 51°12.793 2°33.839 8.6 345 18.6 101850 79
2004-06-08 07:23:08 51°12.784 2°33.813 8.6 345 18.6 101850 79
2004-06-08 07:23:12 51°12.777 2°33.793 8.2 345 18.6 101840 79
2004-06-08 07:23:17 51°12.768 2°33.768 7.8 346 18.6 101840 79
2004-06-08 07:23:22 51°12.759 2°33.743 7.9 344 18.6 101850 79
2004-06-08 07:23:28 51°12.748 2°33.713 8.2 346 18.6 101850 79
2004-06-08 07:23:33 51°12.74 2°33.687 8.1 344 18.6 101850 79
2004-06-08 07:23:37 51°12.733 2°33.667 8.2 345 18.6 101850 79
2004-06-08 07:23:41 51°12.726 2°33.647 7.8 345 18.6 101850 79
2004-06-08 07:23:48 51°12.713 2°33.612 8 345 18.6 101850 79
2004-06-08 07:23:52 51°12.706 2°33.591 7.8 346 18.5 101850 79
2004-06-08 07:23:58 51°12.696 2°33.561 7.9 346 18.5 101850 79
2004-06-08 07:24:00 51°12.692 2°33.551 7.8 346 18.5 101850 79
2004-06-08 07:24:08 51°12.678 2°33.511 8 346 18.5 101850 79
2004-06-08 07:24:12 51°12.671 2°33.491 8.2 345 18.5 101850 79
2004-06-08 07:24:17 51°12.662 2°33.466 8.1 346 18.5 101850 79
2004-06-08 07:24:21 51°12.656 2°33.446 7.8 345 18.5 101850 79
2004-06-08 07:24:28 51°12.643 2°33.41 8.2 346 18.5 101850 79
2004-06-08 07:24:32 51°12.636 2°33.39 7.8 346 18.5 101850 79
2004-06-08 07:24:38 51°12.626 2°33.359 7.7 346 18.5 101850 79
2004-06-08 07:24:42 51°12.619 2°33.339 7.9 346 18.5 101850 79
2004-06-08 07:24:48 51°12.609 2°33.309 8.1 346 18.5 101850 79
2004-06-08 07:24:53 51°12.6 2°33.284 8 346 18.5 101850 79
2004-06-08 07:24:57 51°12.594 2°33.264 8.1 346 18.5 101850 79
2004-06-08 07:25:02 51°12.585 2°33.239 8.1 346 18.4 101850 80
2004-06-08 07:25:08 51°12.575 2°33.208 8.2 345 18.4 101850 80
2004-06-08 07:25:13 51°12.566 2°33.183 8.1 346 18.4 101850 80
2004-06-08 07:25:18 51°12.558 2°33.158 8 345 18.4 101850 80
2004-06-08 07:25:22 51°12.551 2°33.137 8.4 345 18.4 101850 80
2004-06-08 07:25:28 51°12.541 2°33.107 8 345 18.4 101850 80
2004-06-08 07:25:31 51°12.536 2°33.092 8.1 344 18.4 101850 80
2004-06-08 07:25:37 51°12.526 2°33.061 8.2 343 18.4 101850 80
2004-06-08 07:25:41 51°12.519 2°33.041 8 344 18.4 101840 80
2004-06-08 07:25:48 51°12.509 2°33.004 8 343 18.4 101840 80
2004-06-08 07:25:56 51°12.497 2°32.962 7.8 345 18.4 101840 80
2004-06-08 07:26:04 51°12.486 2°32.919 7.9 343 18.4 101840 80
2004-06-08 07:26:09 51°12.478 2°32.893 7.9 344 18.4 101840 80
2004-06-08 07:26:14 51°12.471 2°32.866 8 342 18.3 101840 80
2004-06-08 07:26:18 51°12.466 2°32.845 7.8 343 18.3 101840 80
2004-06-08 07:26:24 51°12.457 2°32.813 8.1 344 18.3 101840 80
2004-06-08 07:26:29 51°12.45 2°32.787 8.3 344 18.3 101840 80
2004-06-08 07:26:33 51°12.444 2°32.765 8.2 343 18.3 101850 80
2004-06-08 07:26:37 51°12.439 2°32.744 8.4 343 18.3 101850 80
2004-06-08 07:26:44 51°12.429 2°32.707 8.3 343 18.3 101850 80
2004-06-08 07:26:48 51°12.423 2°32.686 8 343 18.3 101850 80
2004-06-08 07:26:54 51°12.414 2°32.654 8.1 343 18.3 101850 80
2004-06-08 07:26:58 51°12.408 2°32.633 8.3 344 18.3 101850 80
2004-06-08 07:27:04 51°12.399 2°32.601 8.3 342 18.3 101840 80
2004-06-08 07:27:08 51°12.393 2°32.58 8.1 343 18.3 101840 80
2004-06-08 07:27:12 51°12.388 2°32.559 8.4 342 18.3 101840 80
2004-06-08 07:27:19 51°12.377 2°32.522 8.8 343 18.3 101840 80
2004-06-08 07:27:24 51°12.37 2°32.496 8.2 342 18.3 101840 80
2004-06-08 07:27:29 51°12.363 2°32.469 8.2 342 18.3 101840 80
2004-06-08 07:27:34 51°12.356 2°32.443 8.2 343 18.3 101840 80
2004-06-08 07:27:38 51°12.35 2°32.422 8.3 343 18.3 101840 80
2004-06-08 07:27:44 51°12.341 2°32.39 8.2 343 18.3 101840 80
2004-06-08 07:27:49 51°12.334 2°32.363 8.2 344 18.3 101840 80
2004-06-08 07:27:54 51°12.327 2°32.337 8.7 343 18.3 101840 80
2004-06-08 07:27:57 51°12.322 2°32.321 8.5 344 18.3 101840 80
2004-06-08 07:28:04 51°12.312 2°32.283 8.5 342 18.4 101840 80
2004-06-08 07:28:09 51°12.305 2°32.256 8.5 342 18.4 101840 80
2004-06-08 07:28:12 51°12.301 2°32.24 8.7 342 18.4 101840 80
2004-06-08 07:28:15 51°12.296 2°32.225 8.2 343 18.4 101840 80
2004-06-08 07:28:24 51°12.284 2°32.176 8.7 342 18.4 101840 80
2004-06-08 07:28:29 51°12.276 2°32.15 8.6 343 18.4 101840 80
2004-06-08 07:28:34 51°12.269 2°32.123 8.8 343 18.4 101840 80
2004-06-08 07:28:37 51°12.265 2°32.107 8.6 343 18.4 101840 80
2004-06-08 07:28:44 51°12.254 2°32.07 8.6 342 18.4 101840 80
2004-06-08 07:28:48 51°12.248 2°32.048 8.8 342 18.4 101840 80
2004-06-08 07:28:52 51°12.242 2°32.027 8.6 343 18.4 101840 80
2004-06-08 07:28:57 51°12.235 2°32.001 8.6 342 18.4 101840 80
2004-06-08 07:29:04 51°12.224 2°31.963 8.5 343 18.5 101840 80
2004-06-08 07:29:08 51°12.218 2°31.942 8.8 342 18.5 101840 80
2004-06-08 07:29:14 51°12.21 2°31.91 8.7 342 18.5 101840 80
2004-06-08 07:29:18 51°12.204 2°31.888 8.7 342 18.5 101840 80
2004-06-08 07:29:23 51°12.196 2°31.861 8.7 342 18.5 101840 80
2004-06-08 07:29:28 51°12.189 2°31.834 8.7 342 18.5 101840 80
2004-06-08 07:29:34 51°12.18 2°31.802 8.6 342 18.5 101840 80
2004-06-08 07:29:38 51°12.174 2°31.781 8.8 342 18.5 101840 80
2004-06-08 07:29:44 51°12.165 2°31.748 8.9 341 18.5 101840 80
2004-06-08 07:29:49 51°12.157 2°31.721 8.6 343 18.5 101840 80
2004-06-08 07:29:53 51°12.151 2°31.7 8.8 342 18.6 101840 79
2004-06-08 07:29:59 51°12.142 2°31.668 8.8 343 18.6 101840 79
2004-06-08 07:30:04 51°12.134 2°31.641 9 341 18.6 101840 79
2004-06-08 07:30:09 51°12.127 2°31.614 9 342 18.6 101840 79
2004-06-08 07:30:13 51°12.121 2°31.592 8.8 342 18.6 101840 79
2004-06-08 07:30:19 51°12.112 2°31.56 8.5 342 18.6 101840 79
2004-06-08 07:30:24 51°12.104 2°31.533 8.6 341 18.6 101840 79
2004-06-08 07:30:29 51°12.097 2°31.506 8.8 341 18.6 101840 79
2004-06-08 07:30:33 51°12.091 2°31.485 8.6 342 18.6 101840 79
2004-06-08 07:30:37 51°12.084 2°31.463 8.6 342 18.6 101840 79
2004-06-08 07:30:44 51°12.074 2°31.426 8.8 341 18.6 101840 79
2004-06-08 07:30:48 51°12.068 2°31.404 8.5 342 18.6 101840 79
2004-06-08 07:30:52 51°12.062 2°31.383 8.8 342 18.7 101840 79
2004-06-08 07:30:58 51°12.053 2°31.35 8.5 342 18.7 101840 79
2004-06-08 07:31:04 51°12.044 2°31.318 8.9 342 18.7 101840 79
2004-06-08 07:31:08 51°12.038 2°31.296 8.8 343 18.7 101840 79
2004-06-08 07:31:13 51°12.03 2°31.269 8.4 342 18.7 101840 79
2004-06-08 07:31:18 51°12.022 2°31.242 8.7 342 18.7 101840 79
2004-06-08 07:31:24 51°12.013 2°31.21 8.5 342 18.7 101840 79
2004-06-08 07:31:28 51°12.007 2°31.189 8.5 342 18.7 101840 79
2004-06-08 07:31:34 51°11.998 2°31.156 8.6 342 18.8 101840 79